This is the latest recevied weather packets stored in our database for station/object HB9HUT-13. If no packets are shown the sender has not sent any weather packets the latest 10 day(s).
| Time | Temp. | Humidity | Pressure | Rain* | Wind** | Luminosity | Snow |
|---|---|---|---|---|---|---|---|
| 1777895127 | 21.11° C | 34% | 843.9 hPa | - | - | - | - |
| 1777894224 | 21.11° C | 35% | 844.1 hPa | - | - | - | - |
| 1777893321 | 21.11° C | 33% | 843.8 hPa | - | - | - | - |
| 1777892418 | 21.67° C | 37% | 844.1 hPa | - | - | - | - |
| 1777891515 | 21.11° C | 37% | 844.3 hPa | - | - | - | - |
| 1777890612 | 20° C | 38% | 844.4 hPa | - | - | - | - |
| 1777888806 | 18.33° C | 38% | 844.6 hPa | - | - | - | - |
| 1777887903 | 17.22° C | 38% | 844.5 hPa | - | - | - | - |
| 1777887000 | 16.67° C | 38% | 844.5 hPa | - | - | - | - |
| 1777886097 | 16.11° C | 38% | 844.6 hPa | - | - | - | - |
| 1777885194 | 15.56° C | 38% | 844.7 hPa | - | - | - | - |
| 1777885194 | 15.56° C | 38% | 844.7 hPa | - | - | - | - |
| 1777884291 | 15° C | 38% | 844.7 hPa | - | - | - | - |
| 1777883388 | 14.44° C | 38% | 845 hPa | - | - | - | - |
| 1777882485 | 13.89° C | 38% | 845 hPa | - | - | - | - |
| 1777881582 | 13.33° C | 38% | 844.9 hPa | - | - | - | - |
| 1777880679 | 12.78° C | 38% | 844.8 hPa | - | - | - | - |
| 1777879776 | 12.22° C | 38% | 844.8 hPa | - | - | - | - |
| 1777878873 | 12.22° C | 38% | 844.7 hPa | - | - | - | - |
| 1777878873 | 12.22° C | 38% | 844.7 hPa | - | - | - | - |
| 1777877970 | 11.67° C | 38% | 844.8 hPa | - | - | - | - |
| 1777877970 | 11.67° C | 38% | 844.8 hPa | - | - | - | - |
| 1777877067 | 11.67° C | 38% | 844.7 hPa | - | - | - | - |
| 1777876164 | 11.11° C | 38% | 844.7 hPa | - | - | - | - |
| 1777875261 | 11.11° C | 38% | 844.7 hPa | - | - | - | - |
* Rain since midnight (hover to see other rain measurements)
** Current wind speed in m/s (hover to see current wind gust speed)